DATE/TIME(UTC),Outside Humidity (),Outside Temperature (),Lat. , Long.,Direction / Angle (),Direction / Angle (),Speed (ground - true North),Speed (Apparent),Barometric Pressure ()
Jul-13-2019 00:00:00,100,15.060000000000002,32.475558299999996,-118.8183533,302.69360316761396,74.97725707081953,15.181425485961126,10.088552915766739,1005
Jul-13-2019 00:00:15,100,15.03000000000003,32.4749033,-118.8185766,313.5912604310022,88.25268918400072,13.587473002159827,10.438444924406047,1005
Jul-13-2019 00:00:30,100,15.050000000000011,32.4742566,-118.8187983,308.8930065109294,88.28706665170856,13.393088552915769,10.030237580993521,1005
Jul-13-2019 00:00:45,100,15.110000000000014,32.4735666,-118.8190283,309.59201502098904,74.68504859530282,14.092872570194382,8.70842332613391,1005
Jul-13-2019 00:01:00,100,15.190000000000055,32.4728966,-118.8192416,308.7898741078059,92.068588099572,12.98488120950324,8.397408207343414,1005
Jul-13-2019 00:01:15,100,15.200000000000045,32.4722316,-118.81947,309.294076967521,87.8229708376526,12.187904967602593,9.54427645788337,1005
Jul-13-2019 00:01:30,100,15.180000000000007,32.47157,-118.81967999999999,305.48963720785235,87.37033417949924,12.09071274298056,10.807775377969763,1005
Jul-13-2019 00:01:45,100,15.060000000000002,32.470903299999996,-118.8199016,315.39034790771296,95.38601373337944,13.295896328293736,13.140388768898488,1005
Jul-13-2019 00:02:00,100,15.07000000000005,32.47023,-118.8201283,314.79447180077693,90.06896539456542,13.08207343412527,7.522678185745141,1005
Jul-13-2019 00:02:15,100,15.180000000000007,32.469558299999996,-118.8203566,301.4903917978392,77.26908825134282,12.98488120950324,9.05831533477322,1005
Jul-13-2019 00:02:30,100,15.240000000000009,32.4688833,-118.820585,299.3933662676604,68.00436070407741,14.384449244060475,6.764578833693305,1005
Jul-13-2019 00:02:45,100,15.180000000000007,32.4682116,-118.82079499999999,304.3895582412012,82.48873376498463,16.48380129589633,8.572354211663066,1005
Jul-13-2019 00:03:00,100,15.110000000000014,32.467543299999996,-118.8210216,298.0927520727134,76.39819240274397,13.198704103671707,9.73866090712743,1005
Jul-13-2019 00:03:15,100,15.160000000000025,32.4668533,-118.8212466,297.98961966958984,71.1900060450048,14.792656587473003,8.766738660907127,1005
Jul-13-2019 00:03:30,100,15.140000000000043,32.4661866,-118.82146999999999,292.89029529292554,68.23927340008106,14.59827213822894,9.991360691144708,1005
Jul-13-2019 00:03:45,100,15.130000000000052,32.4655166,-118.82168499999999,298.5912253544772,69.21330165180345,16.48380129589633,7.930885529157668,1005
Jul-13-2019 00:04:00,100,15.180000000000007,32.464855,-118.8219183,292.09388395769366,74.65067112759496,13.781857451403887,10.76889848812095,1005
Jul-13-2019 00:04:15,100,15.260000000000048,32.464188299999996,-118.8221416,285.69394538608236,71.31032718198226,10.788336933045356,10.321814254859612,1005
Jul-13-2019 00:04:30,100,15.270000000000039,32.463515,-118.8223716,283.1901198213607,75.05747116213784,11.8963282937365,12.14902807775378,1005
Jul-13-2019 00:04:45,100,15.140000000000043,32.4628533,-118.82257999999999,292.09388395769366,78.05977000862336,13.781857451403887,10.593952483801296,1005
Jul-13-2019 00:05:00,100,15.07000000000005,32.4622066,-118.8227883,279.9930153245307,76.2778712657665,12.285097192224622,12.557235421166306,1005
Jul-13-2019 00:05:15,100,15.000000000000057,32.461543299999995,-118.8230016,268.39061997313155,65.47188724959918,11.779697624190065,11.585313174946004,1005
Jul-13-2019 00:05:30,100,14.970000000000027,32.4608866,-118.82319659999999,279.9930153245307,64.34888997114275,16.989200863930886,13.91792656587473,1005
Jul-13-2019 00:05:45,100,14.980000000000018,32.460223299999996,-118.82339999999999,282.8921817678927,74.83401762203682,13.295896328293736,11.915766738660908,1005
Jul-13-2019 00:06:00,100,15.000000000000057,32.45955,-118.82359,281.89523520436506,66.62926199576343,15.492440604751618,12.09071274298056,1005
Jul-13-2019 00:06:15,100,14.980000000000018,32.4588816,-118.8237966,285.49341015778657,67.03033245235501,14.59827213822894,10.224622030237581,1005
Jul-13-2019 00:06:30,100,14.990000000000009,32.458205,-118.82400829999999,291.6928135011021,69.86074396030128,15.492440604751618,12.304535637149028,1005
Jul-13-2019 00:06:45,100,14.990000000000009,32.4575366,-118.8242133,297.7948140192454,70.45662006723734,15.78401727861771,11.60475161987041,1005
Jul-13-2019 00:07:00,100,15.020000000000039,32.4568683,-118.8244316,302.99154122108195,72.8000174493224,13.781857451403887,11.95464362850972,1005
Jul-13-2019 00:07:15,100,15.07000000000005,32.456195,-118.82463999999999,298.0927520727134,79.68697014679489,12.887688984881208,10.244060475161987,1005
Jul-13-2019 00:07:30,100,15.090000000000032,32.4555183,-118.8248483,298.493822529305,73.45891891372284,13.295896328293736,9.699784017278619,1005
Jul-13-2019 00:07:45,100,15.07000000000005,32.454825,-118.8250566,298.791760582773,75.61324022341475,12.382289416846653,10.341252699784018,1005
Jul-13-2019 00:08:00,100,15.07000000000005,32.4541383,-118.825245,308.8930065109294,72.92606816425119,13.995680345572353,6.29805615550756,1005
Jul-13-2019 00:08:15,100,15.130000000000052,32.45346,-118.82545499999999,306.19437529586327,74.6793190173515,14.384449244060475,7.853131749460044,1005
Jul-13-2019 00:08:30,100,15.180000000000007,32.45278,-118.82567999999999,292.1912867828659,62.85347012585131,15.68682505399568,9.311015118790497,1005
Jul-13-2019 00:08:45,100,15.170000000000016,32.452104999999996,-118.8259116,287.19509480932516,68.60596638896477,13.781857451403887,10.146868250539956,1005
Jul-13-2019 00:09:00,100,15.140000000000043,32.451421599999996,-118.82611,286.8914271779058,64.05095191767474,15.881209503239742,9.913606911447085,1005
Jul-13-2019 00:09:15,100,15.160000000000025,32.4507316,-118.826315,288.59311182944435,55.42793710095584,16.697624190064797,5.967602591792657,1005
Jul-13-2019 00:09:30,100,15.150000000000034,32.4500516,-118.8265316,299.19283103936465,68.00436070407741,17.086393088552917,10.555075593952484,1005
Jul-13-2019 00:09:45,100,15.140000000000043,32.4493766,-118.82676,299.5939014959562,68.8981748644815,15.084233261339092,10.205183585313176,1005
Jul-13-2019 00:10:00,100,15.100000000000023,32.448699999999995,-118.8269833,293.6924362061087,72.96044563195903,13.684665226781858,10.477321814254859,1005
Jul-13-2019 00:10:15,100,15.07000000000005,32.4480066,-118.827185,297.8922168444176,72.03798358179841,14.384449244060475,11.099352051835854,1005
Jul-13-2019 00:10:30,100,15.130000000000052,32.447321599999995,-118.8273916,296.39106742117485,66.63499157371474,14.481641468682506,11.157667386609072,1005
Jul-13-2019 00:10:45,100,15.150000000000034,32.446645,-118.82759,287.5904356879654,75.05174158418654,13.781857451403887,11.449244060475161,1005
Jul-13-2019 00:11:00,100,15.050000000000011,32.4459683,-118.8278016,285.39027775466303,72.02079484794449,14.59827213822894,11.041036717062635,1005
Jul-13-2019 00:11:15,100,15.000000000000057,32.4452983,-118.82803,283.2932522244842,78.97077290288138,12.09071274298056,10.613390928725703,1005
Jul-13-2019 00:11:30,100,15.07000000000005,32.444616599999996,-118.828255,287.4930328627932,73.19535832796268,13.08207343412527,11.235421166306697,1005
Jul-13-2019 00:11:45,100,15.010000000000048,32.44395,-118.828465,293.9903742595767,83.71486344656458,11.196544276457884,6.900647948164147,1005
Jul-13-2019 00:12:00,100,14.990000000000009,32.44328,-118.828665,289.6931907960955,73.61361751840818,12.09071274298056,11.5658747300216,1005
Jul-13-2019 00:12:15,100,15.07000000000005,32.44261,-118.8288516,296.59160264947064,74.97725707081953,14.792656587473003,12.168466522678184,1005
Jul-13-2019 00:12:30,100,15.160000000000025,32.4419433,-118.82907,280.79515623771385,70.10138623425622,12.187904967602593,12.382289416846653,1005
Jul-13-2019 00:12:45,100,15.150000000000034,32.44128,-118.82928829999999,285.49341015778657,76.47267691611098,12.693304535637148,9.933045356371492,1005
Jul-13-2019 00:13:00,100,15.060000000000002,32.440613299999995,-118.8294916,294.1909094878725,78.09987705428252,13.781857451403887,10.341252699784018,1005
Jul-13-2019 00:13:15,100,15.010000000000048,32.4399533,-118.8296816,292.7928924677533,63.46080538868999,16.386609071274297,8.319654427645789,1005
Jul-13-2019 00:13:30,100,15.04000000000002,32.439273299999996,-118.8298966,300.5908480594838,76.55862058538061,15.589632829373649,9.913606911447085,1005
Jul-13-2019 00:13:45,100,15.000000000000057,32.4386016,-118.83012,303.89108495943736,88.92304980430377,11.682505399568033,9.563714902807774,1005
Jul-13-2019 00:14:00,100,15.130000000000052,32.437909999999995,-118.8303366,304.7906286977927,74.4615950552018,13.198704103671707,6.49244060475162,1005
Jul-13-2019 00:14:15,100,15.150000000000034,32.4372216,-118.83054,304.590093469497,73.0807667689365,11.8963282937365,9.73866090712743,1005
Jul-13-2019 00:14:30,100,15.170000000000016,32.436556599999996,-118.83073499999999,304.9911639260885,77.25762909544021,12.187904967602593,9.427645788336934,1005
Jul-13-2019 00:14:45,100,15.130000000000052,32.4358816,-118.83095,308.8930065109294,86.13274534201665,13.898488120950324,8.222462203023758,1005
Jul-13-2019 00:15:00,100,15.160000000000025,32.4352066,-118.83116659999999,309.6894178461613,73.21827663976791,13.995680345572353,8.74730021598272,1005
Jul-13-2019 00:15:15,100,15.200000000000045,32.434529999999995,-118.83139,308.99040933610166,69.52269886117409,14.481641468682506,8.630669546436286,1005
Jul-13-2019 00:15:30,100,15.230000000000018,32.43387,-118.8316066,299.99497195254776,77.6014037725187,12.498920086393088,9.05831533477322,1005
Jul-13-2019 00:15:45,100,15.210000000000036,32.4331883,-118.83183,307.59239231598247,80.98758434174187,13.393088552915769,9.79697624190065,1005
Jul-13-2019 00:16:00,100,15.140000000000043,32.432525,-118.83202829999999,311.3911024976998,89.58768084665553,12.79049676025918,9.038876889848812,1005
Jul-13-2019 00:16:15,100,15.180000000000007,32.431855,-118.83224329999999,306.5897161745035,85.36498189654135,11.8963282937365,7.542116630669546,1005
Jul-13-2019 00:16:30,100,15.170000000000016,32.4311666,-118.83242329999999,309.59201502098904,81.91004639190248,15.78401727861771,7.308855291576673,1005
Jul-13-2019 00:16:45,100,15.160000000000025,32.430495,-118.83264159999999,315.2929450825407,87.59378771960026,13.781857451403887,9.019438444924406,1005
Jul-13-2019 00:17:00,100,15.260000000000048,32.4298333,-118.83283829999999,305.1916991543843,76.28933042166912,11.682505399568033,7.153347732181426,1005
Jul-13-2019 00:17:15,100,15.29000000000002,32.4291666,-118.83304,305.0942963292121,76.38100366889006,12.887688984881208,8.436285097192224,1005
Jul-13-2019 00:17:30,100,15.28000000000003,32.42849,-118.8332466,298.9922958110688,77.02271639943658,11.779697624190065,9.213822894168468,1005
Jul-13-2019 00:17:45,100,15.330000000000041,32.42781,-118.83345329999999,302.99154122108195,70.00971298703529,10.088552915766739,8.028077753779696,1005
Jul-13-2019 00:18:00,100,15.300000000000011,32.4271483,-118.83367159999999,300.6939804626073,71.94631033457748,10.088552915766739,8.008639308855292,1005
Jul-13-2019 00:18:15,100,15.260000000000048,32.4264783,-118.83386829999999,311.09316444423183,70.23316652713632,13.490280777537798,5.462203023758099,1005
Jul-13-2019 00:18:30,100,15.300000000000011,32.425815,-118.83408829999999,290.7932697627467,68.37105369296114,11.682505399568033,8.650107991360692,1005
Jul-13-2019 00:18:45,100,15.270000000000039,32.425155,-118.8342916,289.38952316467623,66.955847938988,15.39524838012959,8.203023758099352,1005
Jul-13-2019 00:19:00,100,15.210000000000036,32.4245016,-118.8345116,279.7924800962349,68.2793804457402,14.190064794816413,11.31317494600432,1005
Jul-13-2019 00:19:15,100,15.160000000000025,32.423829999999995,-118.8347166,282.4911113113011,76.19765717444818,14.092872570194382,10.496760259179267,1005
Jul-13-2019 00:19:30,100,15.120000000000005,32.423146599999995,-118.8349016,295.3941208576473,74.35273307412693,13.587473002159827,11.468682505399569,1005
Jul-13-2019 00:19:45,100,15.050000000000011,32.42247,-118.8351016,288.79364705774015,69.72323408946988,14.190064794816413,10.710583153347732,1005
Jul-13-2019 00:20:00,100,15.140000000000043,32.42179,-118.8353233,286.28982149301845,69.05287346916681,12.693304535637148,11.099352051835854,1005
Jul-13-2019 00:20:15,100,15.140000000000043,32.42111,-118.83551329999999,296.9926731060622,69.71177493356727,13.684665226781858,11.838012958963283,1005
Jul-13-2019 00:20:30,100,15.110000000000014,32.4204316,-118.8357233,299.08969863624105,73.33286819879407,14.092872570194382,11.701943844492442,1005
Jul-13-2019 00:20:45,100,15.120000000000005,32.4197516,-118.8359516,299.19283103936465,72.53645686356222,14.190064794816413,6.784017278617711,1005
Jul-13-2019 00:21:00,100,15.120000000000005,32.419078299999995,-118.83617,301.690927026135,72.71980335800409,14.987041036717065,8.86393088552916,1005
Jul-13-2019 00:21:15,100,15.170000000000016,32.418405,-118.8364033,290.89067258791897,66.59488452805559,12.09071274298056,8.105831533477323,1005
Jul-13-2019 00:21:30,100,15.180000000000007,32.417738299999996,-118.83662,288.19204137285277,72.11819767311673,11.585313174946004,8.980561555075594,1005
Jul-13-2019 00:21:45,100,15.100000000000023,32.4170766,-118.836815,287.19509480932516,76.4955952279162,12.79049676025918,9.466522678185745,1005
Jul-13-2019 00:22:00,100,15.100000000000023,32.41639,-118.8370133,292.4949544142853,69.3278932108296,12.98488120950324,9.73866090712743,1005
Jul-13-2019 00:22:15,100,15.080000000000041,32.4157083,-118.83718999999999,301.690927026135,76.69040087826069,14.190064794816413,9.369330453563714,1005
Jul-13-2019 00:22:30,100,15.03000000000003,32.4150333,-118.83740999999999,294.8899179979321,79.15984897527454,9.79697624190065,7.406047516198704,1005
Jul-13-2019 00:22:45,100,15.020000000000039,32.4143683,-118.8375983,303.79368213426505,76.57580931923452,11.8963282937365,10.691144708423327,1005
Jul-13-2019 00:23:00,100,15.010000000000048,32.4137,-118.8378,310.99003204110824,81.69805200770409,11.196544276457884,4.334773218142549,1005
Jul-13-2019 00:23:15,100,15.130000000000052,32.413033299999995,-118.83799499999999,297.3937435626538,68.33667622525329,12.59611231101512,7.911447084233262,1005
Jul-13-2019 00:23:30,100,15.260000000000048,32.4123666,-118.8382116,280.1935505528265,60.67050092640287,14.287257019438444,10.107991360691145,1005
Jul-13-2019 00:23:45,100,15.160000000000025,32.4116766,-118.83845,279.49454204276685,75.06320074008916,11.390928725701944,10.904967602591794,1005
Jul-13-2019 00:24:00,100,15.110000000000014,32.411015,-118.8386366,275.294761404458,65.61512669838187,13.781857451403887,11.85745140388769,1005
Jul-13-2019 00:24:15,100,15.050000000000011,32.41035,-118.83883159999999,291.89334872939787,75.40697541716764,14.792656587473003,10.613390928725703,1005
Jul-13-2019 00:24:30,100,14.980000000000018,32.40968,-118.83901999999999,289.79059362126776,68.03873817178525,14.792656587473003,11.5658747300216,1005
Jul-13-2019 00:24:45,100,15.050000000000011,32.409009999999995,-118.83922659999999,292.68976006462975,66.06203377858391,14.59827213822894,10.069114470842331,1005
Jul-13-2019 00:25:00,100,15.130000000000052,32.408335,-118.83944659999999,291.9907515545702,75.00590496057607,13.393088552915769,11.449244060475161,1005
Jul-13-2019 00:25:15,100,15.120000000000005,32.407665,-118.83967,295.9899969645833,75.08038947394309,10.982721382289418,10.749460043196546,1005
Jul-13-2019 00:25:30,100,15.110000000000014,32.4070016,-118.83986159999999,299.29023386453684,73.22973579567052,12.59611231101512,10.82721382289417,1005
Jul-13-2019 00:25:45,100,15.150000000000034,32.4063333,-118.84005499999999,295.1935856293514,67.20221979089426,14.190064794816413,9.874730021598273,1005
Jul-13-2019 00:26:00,100,15.07000000000005,32.40567,-118.84027499999999,289.590058392972,78.34624890618878,11.079913606911447,10.010799136069116,1005
Jul-13-2019 00:26:15,100,14.990000000000009,32.4049866,-118.84048999999999,296.79213787776644,74.8110993102316,10.885529157667388,10.477321814254859,1005
Jul-13-2019 00:26:30,100,15.04000000000002,32.40432,-118.8406866,297.2906111595303,70.2961918846007,14.695464362850972,9.894168466522679,1005
Jul-13-2019 00:26:45,100,15.130000000000052,32.403659999999995,-118.8409033,291.3948754476341,73.9230147277788,11.682505399568033,10.399568034557236,1005
Jul-13-2019 00:27:00,100,15.080000000000041,32.402995,-118.8410833,306.19437529586327,73.57924005070032,14.384449244060475,9.505399568034557,1005
Jul-13-2019 00:27:15,100,15.100000000000023,32.40233,-118.841285,307.1913218593909,75.7278317824409,14.792656587473003,9.116630669546439,1005
Jul-13-2019 00:27:30,100,15.120000000000005,32.401675,-118.84147999999999,308.39453322916563,86.47652001909516,14.092872570194382,6.356371490280778,1005
Jul-13-2019 00:27:45,100,15.140000000000043,32.401025,-118.8416733,306.7902514027993,70.90925672539068,15.589632829373649,10.555075593952484,1005
Jul-13-2019 00:28:00,100,15.120000000000005,32.400388299999996,-118.8418866,300.5908480594838,72.81720618317634,14.092872570194382,8.980561555075594,1005
Jul-13-2019 00:28:15,100,15.100000000000023,32.3997433,-118.84208659999999,296.59160264947064,73.53340342708987,13.587473002159827,9.816414686825054,1005
Jul-13-2019 00:28:30,100,15.090000000000032,32.3990866,-118.84228159999999,300.7913832877796,71.53378072208329,12.59611231101512,9.136069114470843,1005
Jul-13-2019 00:28:45,100,15.140000000000043,32.398415,-118.84249659999999,294.6893827696363,73.87717810416835,10.496760259179267,10.749460043196546,1005
Jul-13-2019 00:29:00,100,15.050000000000011,32.3977383,-118.8427033,302.79100599278615,72.37602868092559,12.09071274298056,8.455723542116631,1005
Jul-13-2019 00:29:15,100,15.090000000000032,32.397073299999995,-118.8429,313.6943928341258,87.6167060314055,11.488120950323973,7.056155507559395,1005
Jul-13-2019 00:29:30,100,15.170000000000016,32.3964133,-118.84312829999999,311.9927081825872,70.93790461514723,11.993520518358531,9.34989200863931,1005
Jul-13-2019 00:29:45,100,15.220000000000027,32.3957583,-118.84334659999999,296.8895407029387,76.3523557791335,9.991360691144708,9.73866090712743,1005
Jul-13-2019 00:30:00,100,15.240000000000009,32.3950883,-118.84353499999999,309.889953074457,77.34930234266115,12.79049676025918,7.464362850971922,1005
Jul-13-2019 00:30:15,100,15.220000000000027,32.394414999999995,-118.843745,303.79368213426505,67.20794936884558,14.695464362850972,9.777537796976242,1005
Jul-13-2019 00:30:30,100,15.120000000000005,32.393738299999995,-118.8439583,304.8937611009163,83.82372542763945,14.190064794816413,9.136069114470843,1005
Jul-13-2019 00:30:45,100,15.170000000000016,32.3930666,-118.84418,296.09312936770687,77.29200656314805,12.09071274298056,10.788336933045356,1005
Jul-13-2019 00:31:00,100,15.190000000000055,32.3924033,-118.84438329999999,294.79251517275986,67.95852408046694,17.49460043196544,11.740820734341252,1005
Jul-13-2019 00:31:15,100,15.050000000000011,32.3917466,-118.84461499999999,285.29287492949084,73.33859777674537,13.393088552915769,11.526997840172786,1005
Jul-13-2019 00:31:30,100,15.07000000000005,32.3910883,-118.84483499999999,285.39027775466303,73.9115555718762,14.792656587473003,10.496760259179267,1005
Jul-13-2019 00:31:45,100,15.020000000000039,32.390441599999996,-118.84504659999999,283.49378745278005,77.14876711436536,11.993520518358531,10.807775377969763,1005
Jul-13-2019 00:32:00,100,14.980000000000018,32.389798299999995,-118.8452516,281.9926380295373,70.61131867192266,14.384449244060475,13.587473002159827,1005
Jul-13-2019 00:32:15,100,15.000000000000057,32.389134999999996,-118.8454666,279.88988292140715,70.7201806529975,14.481641468682506,12.14902807775378,1005
Jul-13-2019 00:32:30,100,15.020000000000039,32.3884683,-118.84567829999999,282.2905760830053,70.1472228578667,14.287257019438444,12.05183585313175,1005
Jul-13-2019 00:32:45,100,14.970000000000027,32.3877916,-118.8458833,292.5923572394575,73.20108790591398,14.987041036717065,9.408207343412528,1005
Jul-13-2019 00:33:00,100,15.03000000000003,32.3871166,-118.8460916,281.0930942911819,67.12200569957594,15.881209503239742,10.613390928725703,1005
Jul-13-2019 00:33:15,100,14.940000000000055,32.386436599999996,-118.84631159999999,273.69047957809164,63.56966736976485,14.092872570194382,10.302375809935205,1005
Jul-13-2019 00:33:30,100,14.920000000000016,32.385768299999995,-118.84652,273.7936119812152,65.29999991105993,12.98488120950324,11.37149028077754,1005
Jul-13-2019 00:33:45,100,14.910000000000025,32.3851066,-118.8467433,279.5919448679391,72.41613572658476,10.982721382289418,11.274298056155507,1005
Jul-13-2019 00:34:00,100,14.960000000000036,32.3844383,-118.8469566,280.3940857811223,59.97722199429457,12.98488120950324,9.952483801295896,1005
Jul-13-2019 00:34:15,100,14.970000000000027,32.38377,-118.84716999999999,264.5919097914142,71.60253565749898,9.680345572354213,12.265658747300217,1005
Jul-13-2019 00:34:30,100,14.950000000000045,32.3831066,-118.84737829999999,286.49035672131424,70.2961918846007,13.295896328293736,11.293736501079914,1005
Jul-13-2019 00:34:45,100,15.000000000000057,32.3824366,-118.847595,282.7947789427205,70.26754399484417,14.190064794816413,10.282937365010799,1005
Jul-13-2019 00:35:00,100,15.100000000000023,32.381775,-118.84781,293.1939629243449,75.36686837150849,14.384449244060475,12.09071274298056,1005
Jul-13-2019 00:35:15,100,15.07000000000005,32.3811083,-118.84801999999999,292.89029529292554,71.55669903388852,14.384449244060475,11.02159827213823,1005
Jul-13-2019 00:35:30,100,15.000000000000057,32.3804516,-118.8482416,281.4941647477735,71.29886802607965,11.993520518358531,11.31317494600432,1005
Jul-13-2019 00:35:45,100,14.990000000000009,32.37979,-118.8484383,288.6905146546166,65.60939712043057,15.29805615550756,11.041036717062635,1005
Jul-13-2019 00:36:00,100,15.020000000000039,32.379129999999996,-118.84866,290.592734534451,71.87755539916178,14.695464362850972,11.779697624190065,1005
Jul-13-2019 00:36:15,100,14.960000000000036,32.378445,-118.84885829999999,291.29174304451055,65.81566192667768,18.68034557235421,12.848812095032399,1005
Jul-13-2019 00:36:30,100,14.920000000000016,32.3777866,-118.84908829999999,286.28982149301845,68.68045090233178,16.386609071274297,12.732181425485962,1005
Jul-13-2019 00:36:45,100,14.880000000000052,32.377121599999995,-118.84933,272.3898653831447,61.94819680954462,13.587473002159827,10.321814254859612,1005
Jul-13-2019 00:37:00,100,14.870000000000005,32.376433299999995,-118.84951,281.2936295194777,64.15408432079829,16.892008639308855,12.226781857451403,1005
Jul-13-2019 00:37:15,100,14.880000000000052,32.3757666,-118.8497433,282.7947789427205,85.59416501459368,11.8963282937365,5.598272138228942,1005
Jul-13-2019 00:37:30,100,14.950000000000045,32.375095,-118.849955,282.59424371442464,73.0807667689365,13.490280777537798,11.60475161987041,1005
Jul-13-2019 00:37:45,100,14.930000000000007,32.3744233,-118.850175,269.3932961146105,62.8477405479,14.481641468682506,13.159827213822895,1005
Jul-13-2019 00:38:00,100,14.82000000000005,32.373766599999996,-118.8504116,264.79244501970993,66.31986478639278,12.693304535637148,11.974082073434126,1005
Jul-13-2019 00:38:15,100,14.870000000000005,32.373095,-118.8506366,281.2936295194777,67.47150995460574,13.995680345572353,11.663066954643629,1005
Jul-13-2019 00:38:30,100,14.890000000000043,32.372421599999996,-118.8508566,291.49227827280635,77.0513642891931,14.190064794816413,12.751619870410368,1005
Jul-13-2019 00:38:45,100,14.870000000000005,32.371755,-118.85108659999999,290.592734534451,72.37029910297429,16.28941684665227,11.915766738660908,1005
Jul-13-2019 00:39:00,100,14.870000000000005,32.371089999999995,-118.85132159999999,285.1897425263673,67.5803719356806,15.29805615550756,12.09071274298056,1005
Jul-13-2019 00:39:15,100,14.930000000000007,32.3704266,-118.851535,295.3941208576473,71.84890750940524,15.589632829373649,9.971922246220302,1005